Nashua, NH

5:05 PM EDT on May 29, 2017 (GMT -0400)
Boire

Weather History for KASH - January, 2012

Change the Weather History Date:

Friday, January 13, 2012

  Actual Average Record
Temperature  
Mean Temperature 32 °F -  
Max Temperature 37 °F 31 °F 69 °F (2002)
Min Temperature 28 °F 8 °F -13 °F (1981)
Degree Days  
Heating Degree Days 32    
Moisture  
Dew Point 28 °F    
Average Humidity 89    
Maximum Humidity 100    
Minimum Humidity 66    
Precipitation  
Precipitation 0.26 in - - ()
Sea Level Pressure  
Sea Level Pressure 29.42 in    
Wind  
Wind Speed 3 mph (West)    
Max Wind Speed 18 mph    
Max Gust Speed 33 mph    
Visibility 4 miles    
Events Fog , Rain , Snow    
Averages and records for this station are not official NWS values.
T = Trace of Precipitation, MM = Missing Value Source: NWS Daily Summary

Daily Weather History Graph

Daily Weather History Graph

Search for Another Location

Airport or City:

Trip Planner

Search our weather history database for the weather conditions in past years. The results will help you decide how hot, cold, wet, or windy it might be!

Date:

Astronomy

Jan. 13, 2012 Rise Set
Actual Time 7:14 AM EST 4:34 PM EST
Civil Twilight 6:43 AM EST 5:06 PM EST
Nautical Twilight 6:08 AM EST 5:41 PM EST
Astronomical Twilight 5:34 AM EST 6:15 PM EST
Moon 9:52 PM EST (1/13) 9:20 AM EST (1/13)
Length of Visible Light 10h 22m
Length of Day
9h 19m
Waning Gibbous, 79% of the Moon is Illuminated
Jan 13
Waning Gibbous
Jan 16
Last Quarter
Jan 23
New
Jan 30
First Quarter
Feb 7
Full

Hourly Weather History & Observations

Time (EST) Temp. Windchill Dew Point Humidity Pressure Visibility Wind Dir Wind Speed Gust Speed Precip Events Conditions
12:13 AM 30.2 °F - 28.4 °F 93% 29.58 in 6.0 mi Calm Calm - N/A   Overcast
12:43 AM 30.2 °F - 28.4 °F 93% 29.56 in 10.0 mi Calm Calm - N/A   Overcast
12:51 AM 30.0 °F - 28.0 °F 92% 29.58 in 10.0 mi Calm Calm - N/A   Overcast
1:08 AM 30.2 °F - 28.4 °F 93% 29.56 in 10.0 mi Calm Calm - N/A   Overcast
1:51 AM 31.1 °F - 29.1 °F 92% 29.59 in 10.0 mi Calm Calm - N/A   Mostly Cloudy
2:51 AM 30.0 °F - 29.1 °F 96% 29.58 in 10.0 mi Calm Calm - N/A   Mostly Cloudy
3:00 AM 30.2 °F - 28.4 °F 93% 29.57 in 9.0 mi Calm Calm - N/A   Mostly Cloudy
3:40 AM 30.2 °F - 28.4 °F 93% 29.55 in 5.0 mi Calm Calm - 0.00 in Rain Light Freezing Rain
3:51 AM 30.0 °F - 29.1 °F 96% 29.57 in 3.0 mi Calm Calm - 0.00 in Rain Light Freezing Rain
4:12 AM 30.2 °F - 28.4 °F 93% 29.56 in 3.0 mi Calm Calm - 0.00 in   Mostly Cloudy
4:38 AM 30.2 °F 25.4 °F 28.4 °F 93% 29.53 in 2.5 mi ENE 4.6 mph - 0.00 in   Scattered Clouds
4:51 AM 30.0 °F - 29.1 °F 96% 29.55 in 2.5 mi Calm Calm - 0.00 in   Scattered Clouds
5:12 AM 30.2 °F 25.4 °F 28.4 °F 93% 29.52 in 2.5 mi East 4.6 mph - N/A   Mostly Cloudy
5:24 AM 30.2 °F 25.4 °F 28.4 °F 93% 29.51 in 1.8 mi East 4.6 mph - N/A   Mostly Cloudy
5:51 AM 30.0 °F 26.5 °F 29.1 °F 96% 29.51 in 2.0 mi East 3.5 mph - N/A   Mostly Cloudy
6:12 AM 30.2 °F 26.7 °F 28.4 °F 93% 29.48 in 1.2 mi East 3.5 mph - N/A   Mostly Cloudy
6:20 AM 30.2 °F 25.4 °F 28.4 °F 93% 29.47 in 0.8 mi East 4.6 mph - N/A   Mostly Cloudy
6:51 AM 30.0 °F 25.2 °F 29.1 °F 96% 29.47 in 1.0 mi East 4.6 mph - N/A   Mist
7:03 AM 30.2 °F 23.4 °F 28.4 °F 93% 29.44 in 1.2 mi East 6.9 mph - N/A   Mostly Cloudy
7:22 AM 30.2 °F 25.4 °F 28.4 °F 93% 29.43 in 1.5 mi East 4.6 mph - N/A   Mostly Cloudy
7:33 AM 30.2 °F 26.7 °F 28.4 °F 93% 29.45 in 1.2 mi East 3.5 mph - 0.00 in Rain Light Freezing Rain
7:37 AM 30.2 °F 24.3 °F 28.4 °F 93% 29.43 in 1.0 mi East 5.8 mph - 0.00 in Rain Light Freezing Rain
7:51 AM 30.0 °F 24.1 °F 29.1 °F 96% 29.43 in 2.0 mi East 5.8 mph - 0.00 in Rain Light Freezing Rain
8:20 AM 30.2 °F 26.7 °F 30.2 °F 100% 29.38 in 2.0 mi Variable 3.5 mph - 0.00 in Rain Light Freezing Rain
8:34 AM 30.2 °F - 30.2 °F 100% 29.37 in 2.0 mi Calm Calm - 0.00 in   Mostly Cloudy
8:51 AM 31.1 °F - 30.0 °F 96% 29.38 in 1.5 mi Calm Calm - 0.00 in   Mostly Cloudy
9:13 AM 30.2 °F - 30.2 °F 100% 29.35 in 2.0 mi Calm Calm - 0.00 in   Mostly Cloudy
9:43 AM 32.0 °F 26.4 °F 30.2 °F 93% 29.32 in 2.5 mi NW 5.8 mph - 0.00 in Rain Light Freezing Rain
9:51 AM 32.0 °F - 31.1 °F 96% 29.34 in 2.5 mi Calm Calm - 0.00 in Rain Light Freezing Rain
10:51 AM 32.0 °F 26.4 °F 31.1 °F 96% 29.26 in 1.0 mi WNW 5.8 mph - 0.00 in Rain Light Freezing Rain
10:55 AM 32.0 °F 28.7 °F 30.2 °F 93% 29.24 in 1.5 mi Variable 3.5 mph - 0.00 in Rain Light Freezing Rain
10:59 AM 32.0 °F - 30.2 °F 93% 29.24 in 3.0 mi Calm Calm - 0.00 in Rain Light Freezing Rain
11:06 AM 32.0 °F 28.7 °F 30.2 °F 93% 29.22 in 1.0 mi NW 3.5 mph - 0.00 in Rain Light Freezing Rain
11:43 AM 33.8 °F - 32.0 °F 93% 29.17 in 1.0 mi Calm Calm - 0.00 in Rain Light Freezing Rain
11:51 AM 32.9 °F - 32.0 °F 96% 29.18 in 1.0 mi Calm Calm - 0.01 in   Clear
12:51 PM 36.9 °F - 34.0 °F 89% 29.18 in 10.0 mi Calm Calm - 0.11 in   Mostly Cloudy
1:51 PM 37.9 °F 28.5 °F 32.0 °F 79% 29.19 in 10.0 mi West 17.3 mph 23.0 mph 0.09 in   Mostly Cloudy
2:51 PM 36.0 °F 29.0 °F 31.1 °F 82% 29.24 in 10.0 mi West 9.2 mph 18.4 mph 0.04 in   Mostly Cloudy
3:08 PM 33.8 °F 23.2 °F 30.2 °F 87% 29.24 in 2.5 mi West 17.3 mph - 0.01 in Snow Light Snow
3:10 PM 33.8 °F 22.8 °F 30.2 °F 87% 29.24 in 0.5 mi West 18.4 mph 24.2 mph 0.01 in Fog , Snow Light Snow
3:51 PM 32.9 °F 26.7 °F 30.0 °F 89% 29.29 in 2.5 mi WSW 6.9 mph 16.1 mph 0.01 in Snow Light Snow
3:54 PM 33.8 °F 27.0 °F 30.2 °F 87% 29.28 in 3.0 mi West 8.1 mph 16.1 mph 0.00 in Snow Light Snow
4:51 PM 30.0 °F 17.9 °F 28.0 °F 92% 29.35 in 0.5 mi West 18.4 mph 27.6 mph 0.00 in Fog , Snow Snow
5:02 PM 30.2 °F 23.4 °F 28.4 °F 93% 29.34 in 3.0 mi WSW 6.9 mph 18.4 mph 0.00 in Snow Light Snow
5:51 PM 30.0 °F 20.5 °F 20.1 °F 67% 29.41 in 10.0 mi WSW 11.5 mph 33.4 mph 0.00 in   Mostly Cloudy
6:51 PM 29.1 °F 22.1 °F 19.0 °F 66% 29.44 in 10.0 mi WSW 6.9 mph 17.3 mph N/A   Mostly Cloudy
7:51 PM 28.0 °F 17.0 °F 20.1 °F 72% 29.47 in 3.0 mi WSW 13.8 mph - 0.00 in Snow Light Snow
7:57 PM 28.4 °F 19.1 °F 21.2 °F 74% 29.45 in 2.5 mi West 10.4 mph 26.5 mph 0.00 in Snow Light Snow
8:51 PM 28.0 °F 18.6 °F 19.0 °F 69% 29.49 in 10.0 mi West 10.4 mph - 0.00 in   Scattered Clouds
9:51 PM 28.0 °F 18.1 °F 20.1 °F 72% 29.52 in 10.0 mi West 11.5 mph - N/A   Overcast
10:51 PM 30.0 °F 24.1 °F 20.1 °F 67% 29.55 in 10.0 mi Variable 5.8 mph - N/A   Mostly Cloudy
11:51 PM 31.1 °F 23.7 °F 21.0 °F 66% 29.57 in 10.0 mi West 8.1 mph - N/A   Overcast